EW1296 Weather Reports


time (UTC)temp
C
wind
direction
speed
KPH
gust
KPH
rain 1hr
cm
rain 24hr
cm
rain mn
cm
humidity
%
barometer
mb
20260509064517 13 0.0 6.4 0.00 0.00 0.00 72 1012.4
20260509064037 13 135 1.6 4.8 0.00 0.00 0.00 72 1012.6
20260509063518 13 0.0 1.6 0.00 0.00 0.00 71 1012.5
20260509063017 13 0.0 3.2 0.00 0.00 0.00 72 1012.5
20260509062518 14 135 1.6 4.8 0.00 0.00 0.00 72 1012.5
20260509062017 14 135 1.6 3.2 0.00 0.00 0.00 71 1012.7
20260509061517 14 0.0 3.2 0.00 0.00 0.00 71 1012.7
20260509061017 14 0.0 3.2 0.00 0.00 0.00 70 1012.9
20260509060517 14 0.0 3.2 0.00 0.00 0.00 70 1013.0
20260509060038 14 135 1.6 4.8 0.00 0.00 0.00 70 1013.1
20260509055517 14 135 1.6 3.2 0.00 0.00 0.00 70 1013.2
20260509055017 14 0.0 3.2 0.00 0.00 0.00 69 1013.3
20260509054517 14 0.0 3.2 0.00 0.00 0.00 68 1013.2
20260509054017 14 0.0 6.4 0.00 0.00 0.00 68 1013.2
20260509053517 14 135 1.6 6.4 0.00 0.00 0.00 67 1013.3
20260509053037 14 135 3.2 9.7 0.00 0.00 0.00 66 1013.3
20260509052517 14 135 1.6 6.4 0.00 0.00 0.00 66 1013.3
20260509052017 14 113 1.6 4.8 0.00 0.00 0.00 66 1013.2
20260509051516 14 135 1.6 4.8 0.00 0.00 0.00 65 1013.2
20260509051017 14 0.0 3.2 0.00 0.00 0.00 65 1013.2
20260509050517 14 0.0 0.0 0.00 0.00 0.00 65 1013.2
20260509050016 14 0.0 0.0 0.00 0.00 0.00 64 1013.1
20260509045517 13 0.0 0.0 0.00 0.00 0.00 64 1013.0
20260509045037 13 0.0 0.0 0.00 0.00 0.00 64 1012.9
20260509044518 14 0.0 0.0 0.00 0.00 0.00 63 1012.9
20260509044017 14 0.0 3.2 0.00 0.00 0.00 63 1013.0
20260509043537 14 0.0 0.0 0.00 0.00 0.00 63 1012.9
20260509043057 14 0.0 0.0 0.00 0.00 0.00 62 1013.0
20260509042517 14 0.0 0.0 0.00 0.00 0.00 62 1013.0
20260509042016 14 0.0 1.6 0.00 0.00 0.00 62 1013.0
20260509041517 14 0.0 0.0 0.00 0.00 0.00 62 1012.9
20260509041037 14 0.0 1.6 0.00 0.00 0.00 62 1012.9
20260509040517 14 0.0 0.0 0.00 0.00 0.00 62 1013.0
20260509040039 14 0.0 0.0 0.00 0.00 0.00 61 1013.0
20260509035538 14 0.0 0.0 0.00 0.00 0.00 61 1013.0
20260509035017 14 0.0 0.0 0.00 0.00 0.00 61 1013.1
20260509034538 14 0.0 0.0 0.00 0.00 0.00 61 1013.1
20260509034017 14 0.0 0.0 0.00 0.00 0.00 61 1013.1
20260509033517 14 0.0 1.6 0.00 0.00 0.00 61 1013.1
20260509033017 14 0.0 0.0 0.00 0.00 0.00 60 1013.1
20260509032518 14 0.0 0.0 0.00 0.00 0.00 60 1013.1
20260509032037 14 0.0 0.0 0.00 0.00 0.00 61 1013.2
20260509031517 14 0.0 0.0 0.00 0.00 0.00 61 1013.2
20260509031017 14 0.0 1.6 0.00 0.00 0.00 61 1013.2
20260509030517 14 0.0 0.0 0.00 0.00 0.00 61 1013.2
20260509030017 15 0.0 0.0 0.00 0.00 0.00 61 1013.2
20260509025517 15 0.0 1.6 0.00 0.00 0.00 61 1013.3
20260509025018 15 0.0 0.0 0.00 0.00 0.00 61 1013.4
20260509024518 15 0.0 1.6 0.00 0.00 0.00 61 1013.3
20260509024017 15 0.0 1.6 0.00 0.00 0.00 62 1013.4
20260509023517 15 0.0 4.8 0.00 0.00 0.00 62 1013.4
20260509023017 15 0.0 1.6 0.00 0.00 0.00 62 1013.4
20260509022517 15 0.0 4.8 0.00 0.00 0.00 61 1013.4
20260509022017 15 135 1.6 6.4 0.00 0.00 0.00 61 1013.3
20260509021515 15 135 1.6 4.8 0.00 0.00 0.00 60 1013.2
20260509021017 15 0.0 4.8 0.00 0.00 0.00 61 1013.3
20260509020517 15 0.0 3.2 0.00 0.00 0.00 61 1013.3
20260509020017 15 113 1.6 6.4 0.00 0.00 0.00 60 1013.2
20260509015517 15 135 1.6 8.0 0.00 0.00 0.00 60 1013.2
20260509015037 15 135 1.6 8.0 0.00 0.00 0.00 60 1013.0
20260509014517 15 0.0 3.2 0.00 0.00 0.00 60 1013.0
20260509014017 15 113 1.6 6.4 0.00 0.00 0.00 61 1013.0
20260509013517 15 135 1.6 9.7 0.00 0.00 0.00 60 1013.0
20260509013018 15 135 1.6 4.8 0.00 0.00 0.00 60 1012.9
20260509012517 15 135 1.6 6.4 0.00 0.00 0.00 60 1012.9
20260509012017 15 135 1.6 6.4 0.00 0.00 0.00 58 1012.8
20260509011518 15 135 3.2 11.3 0.00 0.00 0.00 57 1012.7
20260509011018 15 135 3.2 8.0 0.00 0.00 0.00 56 1012.6
20260509010538 15 135 4.8 11.3 0.00 0.00 0.00 54 1012.5
20260509010018 16 135 3.2 11.3 0.00 0.00 0.00 54 1012.4
20260509005517 16 135 4.8 16.1 0.00 0.00 0.00 52 1012.2
20260509005017 16 0.0 6.4 0.00 0.00 0.00 50 1012.1
20260509004517 16 90 1.6 4.8 0.00 0.00 0.00 49 1012.1
20260509004018 16 90 1.6 4.8 0.00 0.00 0.00 50 1012.0
20260509003517 16 0.0 4.8 0.00 0.00 0.00 50 1011.9
20260509003017 16 0.0 3.2 0.00 0.00 0.00 50 1011.8
20260509002538 16 0.0 3.2 0.00 0.00 0.00 50 1011.8
20260509002017 16 45 1.6 4.8 0.00 0.00 0.00 50 1011.7
20260509001518 16 45 1.6 4.8 0.00 0.00 0.00 49 1011.7
20260509001017 16 0.0 4.8 0.00 0.00 0.00 49 1011.8
20260509000518 16 45 1.6 4.8 0.00 0.00 0.00 49 1011.9
20260509000037 16 0.0 3.2 0.00 0.00 0.00 49 1011.8
20260508235517 16 0.0 3.2 0.00 0.00 0.00 49 1011.8
20260508235016 16 0.0 3.2 0.00 0.00 0.00 49 1011.8
20260508234517 16 45 1.6 3.2 0.00 0.00 0.00 49 1011.8
20260508234017 16 0.0 3.2 0.00 0.00 0.00 49 1011.8
20260508233600 16 338 1.6 6.4 0.00 0.00 0.00 48 1011.7
20260508233017 16 45 3.2 8.0 0.00 0.00 0.00 48 1011.6
20260508232538 16 45 1.6 6.4 0.00 0.00 0.00 47 1011.5
20260508232017 16 45 1.6 6.4 0.00 0.00 0.00 47 1011.5
20260508231538 16 45 3.2 9.7 0.00 0.00 0.00 47 1011.5
20260508231037 16 45 1.6 8.0 0.00 0.00 0.00 47 1011.4
20260508230517 16 338 3.2 6.4 0.00 0.00 0.00 47 1011.4
20260508230017 16 23 1.6 6.4 0.00 0.00 0.00 46 1011.4
20260508225518 17 0 3.2 8.0 0.00 0.00 0.00 46 1011.4
20260508225017 17 23 3.2 12.9 0.00 0.00 0.00 46 1011.4
20260508224517 17 23 3.2 8.0 0.00 0.00 0.00 46 1011.4
20260508224017 17 45 3.2 9.7 0.00 0.00 0.00 46 1011.4
20260508223517 17 315 3.2 9.7 0.00 0.00 0.00 46 1011.3
20260508223017 17 0 1.6 8.0 0.00 0.00 0.00 45 1011.4
20260508222517 17 338 1.6 6.4 0.00 0.00 0.00 46 1011.4
20260508222017 17 338 4.8 12.9 0.00 0.00 0.00 45 1011.4
20260508221517 17 0 3.2 12.9 0.00 0.00 0.00 44 1011.4
20260508221017 17 338 3.2 9.7 0.00 0.00 0.00 43 1011.4
20260508220517 17 338 3.2 12.9 0.00 0.00 0.00 43 1011.3
20260508220018 17 23 3.2 14.5 0.00 0.00 0.00 43 1011.2
20260508215516 17 315 6.4 14.5 0.00 0.00 0.00 41 1011.2
20260508215017 18 248 6.4 17.7 0.00 0.00 0.00 41 1011.3
20260508214516 18 315 6.4 17.7 0.00 0.00 0.00 40 1011.2
20260508214017 18 315 6.4 16.1 0.00 0.00 0.00 41 1011.3
20260508213518 18 315 6.4 16.1 0.00 0.00 0.00 40 1011.3
20260508213017 18 315 4.8 12.9 0.00 0.00 0.00 40 1011.3
20260508212517 18 315 8.0 17.7 0.00 0.00 0.00 39 1011.4
20260508212017 18 270 8.0 20.9 0.00 0.00 0.00 40 1011.4
20260508211517 17 315 8.0 19.3 0.00 0.00 0.00 40 1011.3
20260508211057 17 270 14.5 24.1 0.00 0.00 0.00 40 1011.6
20260508210518 17 270 9.7 22.5 0.00 0.00 0.00 40 1011.6
20260508210017 17 270 11.3 22.5 0.00 0.00 0.00 39 1011.6
20260508205517 17 248 9.7 22.5 0.00 0.00 0.00 39 1011.6
20260508205017 17 270 11.3 20.9 0.00 0.00 0.00 39 1011.4
20260508204538 17 270 12.9 25.7 0.00 0.00 0.00 39 1011.5
20260508204056 17 270 16.1 30.6 0.00 0.00 0.00 38 1011.5
20260508203517 17 270 12.9 27.4 0.00 0.00 0.00 38 1011.6
20260508203017 17 270 9.7 20.9 0.00 0.00 0.00 38 1011.5
20260508202537 17 270 14.5 25.7 0.00 0.00 0.00 38 1011.5
20260508202017 17 270 14.5 29.0 0.00 0.00 0.00 37 1011.3
20260508201517 17 248 14.5 32.2 0.00 0.00 0.00 37 1011.2
20260508201018 18 248 12.9 24.1 0.00 0.00 0.00 37 1011.3
20260508200518 18 270 14.5 22.5 0.00 0.00 0.00 36 1011.3
20260508200057 18 270 12.9 25.7 0.00 0.00 0.00 36 1011.3
20260508195537 18 248 12.9 22.5 0.00 0.00 0.00 36 1011.2
20260508195036 18 270 11.3 20.9 0.00 0.00 0.00 36 1011.1
20260508194517 18 270 9.7 19.3 0.00 0.00 0.00 36 1011.1
20260508194016 18 270 12.9 24.1 0.00 0.00 0.00 36 1011.1
20260508193516 18 315 9.7 22.5 0.00 0.00 0.00 35 1011.1
20260508193037 18 293 12.9 25.7 0.00 0.00 0.00 35 1011.0
20260508192516 18 270 16.1 24.1 0.00 0.00 0.00 35 1011.3
20260508192016 18 270 12.9 27.4 0.00 0.00 0.00 36 1011.5
20260508191517 18 270 9.7 19.3 0.00 0.00 0.00 36 1011.5
20260508191036 18 248 11.3 32.2 0.00 0.00 0.00 36 1011.6
20260508190516 17 270 11.3 22.5 0.00 0.00 0.00 37 1011.5
20260508190016 17 270 11.3 24.1 0.00 0.00 0.00 37 1011.7
20260508185537 17 270 11.3 24.1 0.00 0.00 0.00 37 1011.7
20260508185017 17 248 12.9 25.7 0.00 0.00 0.00 36 1011.7
20260508184517 17 248 17.7 30.6 0.00 0.00 0.00 35 1011.8
20260508184016 18 248 14.5 25.7 0.00 0.00 0.00 35 1011.8
20260508183516 18 248 11.3 22.5 0.00 0.00 0.00 35 1011.8
20260508183036 18 270 11.3 22.5 0.00 0.00 0.00 35 1011.7
20260508182518 18 248 12.9 24.1 0.00 0.00 0.00 36 1011.7
20260508182016 18 270 11.3 24.1 0.00 0.00 0.00 36 1011.7
20260508181516 18 248 16.1 29.0 0.00 0.00 0.00 36 1011.8
20260508181017 18 270 16.1 25.7 0.00 0.00 0.00 35 1012.1
20260508180516 17 248 16.1 25.7 0.00 0.00 0.00 36 1011.9
20260508180016 17 270 14.5 25.7 0.00 0.00 0.00 37 1012.0
20260508175516 17 270 16.1 32.2 0.00 0.00 0.00 37 1012.1
20260508175017 17 270 16.1 29.0 0.00 0.00 0.00 37 1012.1
20260508174518 17 270 12.9 24.1 0.00 0.00 0.00 37 1012.2
20260508174016 17 270 12.9 22.5 0.00 0.00 0.00 37 1012.2
20260508173516 17 270 16.1 29.0 0.00 0.00 0.00 36 1012.2
20260508173038 17 270 14.5 24.1 0.00 0.00 0.00 37 1012.1
20260508172516 17 270 16.1 33.8 0.00 0.00 0.00 38 1012.1
20260508172016 17 270 17.7 32.2 0.00 0.00 0.00 38 1012.1
20260508171517 17 270 17.7 29.0 0.00 0.00 0.00 37 1012.4
20260508171016 17 248 12.9 25.7 0.00 0.00 0.00 37 1012.2
20260508170516 17 270 14.5 25.7 0.00 0.00 0.00 38 1012.2
20260508170041 17 248 12.9 24.1 0.00 0.00 0.00 38 1012.2
20260508165516 17 270 14.5 25.7 0.00 0.00 0.00 37 1012.4
20260508165016 17 270 14.5 22.5 0.00 0.00 0.00 37 1012.5
20260508164517 17 248 12.9 20.9 0.00 0.00 0.00 37 1012.5
20260508164036 17 270 16.1 29.0 0.00 0.00 0.00 36 1012.7
20260508163516 16 270 17.7 32.2 0.00 0.00 0.00 36 1012.6
20260508163038 17 270 16.1 30.6 0.00 0.00 0.00 36 1012.6
20260508162516 17 270 17.7 27.4 0.00 0.00 0.00 36 1012.5
20260508162017 17 248 16.1 40.2 0.00 0.00 0.00 36 1012.7
20260508161516 17 248 17.7 38.6 0.00 0.00 0.00 36 1012.7
20260508161016 17 248 14.5 25.7 0.00 0.00 0.00 37 1012.8
20260508160517 16 270 14.5 24.1 0.00 0.00 0.00 37 1012.7
20260508160016 16 270 12.9 24.1 0.00 0.00 0.00 37 1012.7
20260508155617 16 270 16.1 29.0 0.00 0.00 0.00 36 1012.9
20260508155016 16 270 14.5 25.7 0.00 0.00 0.00 38 1012.9
20260508154557 17 270 12.9 24.1 0.00 0.00 0.00 37 1012.8
20260508154018 17 248 12.9 27.4 0.00 0.00 0.00 37 1012.8
20260508153516 16 270 14.5 32.2 0.00 0.00 0.00 37 1012.9
20260508153016 16 248 11.3 25.7 0.00 0.00 0.00 38 1012.9
20260508152516 16 225 9.7 19.3 0.00 0.00 0.00 38 1012.8
20260508152016 16 225 4.8 16.1 0.00 0.00 0.00 37 1012.8
20260508151538 16 338 8.0 16.1 0.00 0.00 0.00 36 1012.8
20260508151016 16 315 6.4 17.7 0.00 0.00 0.00 36 1012.8
20260508150516 16 270 6.4 19.3 0.00 0.00 0.00 37 1012.8
20260508150017 16 270 8.0 22.5 0.00 0.00 0.00 37 1012.8
20260508145517 16 293 4.8 12.9 0.00 0.00 0.00 38 1012.8
20260508145016 16 270 8.0 16.1 0.00 0.00 0.00 38 1012.8
20260508144516 16 270 6.4 19.3 0.00 0.00 0.00 40 1012.9
20260508144056 15 270 8.0 17.7 0.00 0.00 0.00 41 1012.9
20260508143517 15 270 9.7 17.7 0.00 0.00 0.00 40 1013.1
20260508143017 15 315 6.4 16.1 0.00 0.00 0.00 43 1013.1
20260508142518 15 315 8.0 17.7 0.00 0.00 0.00 42 1013.0
20260508142016 15 248 6.4 16.1 0.00 0.00 0.00 45 1013.1
20260508141536 15 315 6.4 14.5 0.00 0.00 0.00 44 1013.1
20260508141016 15 270 6.4 14.5 0.00 0.00 0.00 48 1013.2
20260508140517 15 338 6.4 14.5 0.00 0.00 0.00 48 1013.1
20260508140016 15 248 6.4 19.3 0.00 0.00 0.00 48 1013.2
20260508135516 14 270 9.7 20.9 0.00 0.00 0.00 48 1013.3
20260508135016 15 270 9.7 20.9 0.00 0.00 0.00 48 1013.3
20260508134536 15 270 8.0 14.5 0.00 0.00 0.00 50 1013.2
20260508134016 14 248 8.0 16.1 0.00 0.00 0.00 51 1013.2
20260508133516 14 315 8.0 17.7 0.00 0.00 0.00 51 1013.2
20260508133016 13 315 6.4 16.1 0.00 0.00 0.00 52 1013.3
20260508132516 13 293 8.0 14.5 0.00 0.00 0.00 52 1013.3
20260508132016 13 315 6.4 17.7 0.00 0.00 0.00 54 1013.3
20260508131516 13 270 8.0 16.1 0.00 0.00 0.00 55 1013.2
20260508131016 13 315 9.7 17.7 0.00 0.00 0.00 55 1013.2
20260508130516 13 315 8.0 14.5 0.00 0.00 0.00 56 1013.2
20260508130017 13 270 9.7 20.9 0.00 0.00 0.00 57 1013.1
20260508125518 13 315 8.0 17.7 0.00 0.00 0.00 57 1013.1
20260508125016 12 315 6.4 17.7 0.00 0.00 0.00 57 1013.2
20260508124516 12 248 8.0 24.1 0.00 0.00 0.00 58 1013.1
20260508124016 12 315 4.8 14.5 0.00 0.00 0.00 59 1013.1
20260508123516 12 315 8.0 17.7 0.00 0.00 0.00 59 1013.1
20260508123036 12 248 6.4 14.5 0.00 0.00 0.00 60 1013.2
20260508122516 12 270 9.7 16.1 0.00 0.00 0.00 60 1013.3
20260508122015 12 270 8.0 17.7 0.00 0.00 0.00 62 1013.3
20260508121516 12 293 8.0 20.9 0.00 0.00 0.00 63 1013.4
20260508121017 12 293 6.4 16.1 0.00 0.00 0.00 65 1013.5
20260508120517 11 248 9.7 22.5 0.00 0.00 0.00 65 1013.5
20260508120017 11 270 9.7 17.7 0.00 0.00 0.00 66 1013.4
20260508115516 11 270 8.0 19.3 0.00 0.00 0.00 67 1013.4
20260508115036 11 270 6.4 12.9 0.00 0.00 0.00 68 1013.2
20260508114516 11 248 8.0 16.1 0.00 0.00 0.00 68 1013.2
20260508114017 11 270 4.8 12.9 0.00 0.00 0.00 68 1013.2
20260508113516 11 270 8.0 12.9 0.00 0.00 0.00 68 1013.2
20260508113016 11 270 8.0 14.5 0.00 0.00 0.00 69 1013.1
20260508112516 11 315 6.4 11.3 0.00 0.00 0.00 69 1013.1
20260508112016 11 270 6.4 11.3 0.00 0.00 0.00 70 1013.1
20260508111516 11 248 4.8 9.7 0.00 0.00 0.00 70 1013.1
20260508111016 11 248 4.8 14.5 0.00 0.00 0.00 70 1013.0
20260508110516 10 248 3.2 8.0 0.00 0.00 0.00 71 1012.9
20260508110016 10 270 3.2 6.4 0.00 0.00 0.00 72 1012.8
20260508105535 10 293 4.8 9.7 0.00 0.00 0.00 72 1012.8
20260508105016 10 248 4.8 12.9 0.00 0.00 0.00 73 1012.7
20260508104516 10 315 1.6 4.8 0.00 0.00 0.00 73 1012.5
20260508104017 10 293 1.6 3.2 0.00 0.00 0.00 73 1012.5
20260508103515 10 0 1.6 4.8 0.00 0.00 0.00 73 1012.5
20260508103016 10 293 3.2 6.4 0.00 0.00 0.00 73 1012.4
20260508102516 10 315 3.2 8.0 0.00 0.00 0.00 73 1012.5
20260508102036 10 315 4.8 8.0 0.00 0.00 0.00 73 1012.4
20260508101537 10 315 4.8 11.3 0.00 0.00 0.00 73 1012.4
20260508101017 10 315 4.8 12.9 0.00 0.00 0.00 73 1012.4
20260508100517 10 315 1.6 6.4 0.00 0.00 0.00 73 1012.3
20260508100016 10 315 3.2 12.9 0.00 0.00 0.00 73 1012.3
20260508095516 10 315 4.8 12.9 0.00 0.00 0.00 72 1012.3
20260508095016 10 315 4.8 8.0 0.00 0.00 0.00 72 1012.2
20260508094536 10 315 3.2 11.3 0.00 0.00 0.00 72 1012.1
20260508094017 10 293 3.2 6.4 0.00 0.00 0.00 72 1012.2
20260508093516 10 338 4.8 9.7 0.00 0.00 0.00 72 1012.1
20260508093016 10 315 4.8 11.3 0.00 0.00 0.00 72 1012.1
20260508092515 10 315 4.8 8.0 0.00 0.00 0.00 72 1012.0
20260508092037 10 315 1.6 6.4 0.00 0.00 0.00 72 1011.9
20260508091515 10 45 1.6 6.4 0.00 0.00 0.00 72 1011.5
20260508091015 10 315 3.2 6.4 0.00 0.00 0.00 72 1011.7
20260508090515 10 338 4.8 16.1 0.00 0.00 0.00 71 1011.7
20260508090015 10 315 6.4 16.1 0.00 0.03 0.00 72 1011.7
20260508085515 10 338 4.8 16.1 0.00 0.03 0.00 72 1011.8
20260508085016 10 338 4.8 12.9 0.00 0.03 0.00 71 1011.7
20260508084516 10 338 4.8 12.9 0.00 0.03 0.00 71 1011.7
20260508084017 10 0 4.8 16.1 0.00 0.03 0.00 71 1011.6
20260508083515 10 315 3.2 12.9 0.00 0.03 0.00 70 1011.7
20260508083015 10 293 4.8 12.9 0.00 0.03 0.00 70 1011.8
20260508082517 10 315 8.0 16.1 0.00 0.03 0.00 70 1011.8
20260508082015 10 315 6.4 14.5 0.00 0.03 0.00 69 1011.7
20260508081515 10 315 6.4 17.7 0.00 0.03 0.00 69 1011.6
20260508081015 10 338 8.0 19.3 0.00 0.03 0.00 68 1011.5
20260508080517 10 338 8.0 24.1 0.00 0.03 0.00 66 1011.2
20260508080016 10 338 6.4 16.1 0.00 0.03 0.00 64 1011.1
20260508075515 10 338 6.4 19.3 0.00 0.03 0.00 62 1010.9
20260508075036 11 0 6.4 19.3 0.00 0.03 0.00 61 1010.8
20260508074515 11 0 6.4 19.3 0.00 0.03 0.00 61 1010.7
20260508074015 11 45 6.4 16.1 0.00 0.03 0.00 59 1010.7
20260508073516 11 0 3.2 9.7 0.00 0.03 0.00 59 1010.7
20260508073015 11 0 6.4 19.3 0.00 0.05 0.00 59 1010.7
20260508072515 11 23 4.8 16.1 0.00 0.05 0.00 59 1010.7
20260508072017 11 338 4.8 16.1 0.00 0.05 0.00 60 1010.7
20260508071517 11 0 4.8 16.1 0.00 0.05 0.00 60 1010.7
20260508071016 11 338 6.4 17.7 0.00 0.05 0.00 60 1010.6
20260508070517 11 45 4.8 14.5 0.00 0.05 0.00 60 1010.6
20260508070017 11 0 6.4 17.7 0.00 0.05 0.00 60 1010.7
20260508065515 11 45 6.4 20.9 0.00 0.05 0.00 62 1010.9
20260508065017 11 338 6.4 20.9 0.00 0.08 0.00 62 1010.9